INTELSAT 33E DEB, 64411

Orbit data source: Space-Track

INTELSAT 33E DEB, 64411 is space debris in GEO originally from a launch on Wed, 24 Aug 2016 UTC launched from the French Guiana (FRGUI). Debris objects in space refer to the collection of defunct objects orbiting the Earth. Examples of debris include non-operational satellites, rocket bodies, and fragments generated from explosions, collisions, or faulty payload assembly.

Loading next visibility...
Identifier
64411, 2016-053AR
Orbit
GEO
Country
Flag of USUS / ITSO
Related business
Manufacturer
Boeing/ES
Mission
Spacecraft
Bus & Motor
Unknown
Mass
Unknown
Launch date (UTC)
2016-08-24 (10 years ago)
Launch vehicle
Unknown
Launch site
French Guiana (FRGUI)
Object type
Payload
Rocket body
Debris
Shape & HBR
Unknown shape, 1.1 m
Radar Cross Section
RCS unknown

Expand to show TLE details & history
Last TLE update: 3 months ago

TLE from 3 months ago
0 INTELSAT 33E DEB
1 64411U 16053AR  26042.58195428 -.00000105  00000-0  00000-0 0  9994
2 64411   1.1233  54.0813 0104507 331.9381  28.0697  1.00885442  4675
Epoch: 2026-02-11T13:58Z
TLE epoch observation values (Epoch: 2026-02-11T13:58:00.849Z)
Latitude
Longitude
63.53525°
Altitude
35,230.685 km
Speed
3.109 km/s
True Right ascension
03h 38m 44s
True Declination
0° 00' 00"
Sunlit
Object was in daylight at epoch
Visualization orbit readout
Latitude
Unknown
Longitude
Unknown
Altitude
Unknown
Speed
Unknown
Apparent Right ascension
Unknown
Apparent Declination
Unknown
Sunlit
N/A
Visualization observer readout
Local Sidereal Time
20:34:03
Azimuth
Unknown
Elevation
Unknown
Doppler factor
Unknown
Orbital elements
Apogee altitude
36,055.385 km
Perigee altitude
35,177.638 km
Semi-major axis
41,994.648 km
Eccentricity
0.01045
Inclination
1.1233°
RAAN
54.0813°
Arg. of periapsis
331.9381°
True anomaly
28.63977°
Mean anomaly
28.0697°
Eccentric anomaly
28.35407°
Mean motion
0.2522 °/min
Orbital period
1,427.41 mins
BSTAR
0
Loading maneuver chart data...
Computing Atmospheric mass density...
Loading historical data...
Loading historical data...
Loading historical data...
Loading historical data...
Loading historical data...
Loading historical data...
Loading historical data...

Documentation

Showing up to 5 results
|